Location: Jeleśnia
(49.6536°N, 19.3166°E)
Time: 16:53:21
(UTC+01:00)

ISS - Visible Passes

Search period start: 16 January 2019 00:00
Search period end: 26 January 2019 00:00
Orbit: 404 x 407 km, 51.6° (Epoch: 17 January)

Date Brightness Start Highest point End Pass type
(mag) Time Alt. Az. Time Alt. Az. Time Alt. Az.
23 Jan -1.9 18:36:31 10° SSW 18:38:06 22° S 18:38:06 22° S visible
24 Jan -2.1 17:45:13 10° S 17:47:38 19° SE 17:48:29 17° ESE visible
24 Jan -0.8 19:20:28 10° WSW 19:21:11 15° WSW 19:21:11 15° WSW visible
25 Jan -3.4 18:28:36 10° SW 18:31:29 51° S 18:31:29 51° S visible
